Previsão horária em Abishevo

Hoje, 18 Maio, Terça-feira

Tempo Temperatura Precipitação Vento Pressão Humidade
00:00 +21°C° 0 mm 2 m/s 752 mmHg 46%
01:00 +21°C° 0 mm 2 m/s 752 mmHg 45%
02:00 +20°C° 0 mm 2 m/s 752 mmHg 45%
03:00 +20°C° 0 mm 2 m/s 752 mmHg 46%
04:00 +19°C° 0 mm 2 m/s 752 mmHg 45%
05:00 +22°C° 0 mm 1 m/s 752 mmHg 44%
06:00 +23°C° 0 mm 1 m/s 752 mmHg 44%
07:00 +24°C° 0 mm 1 m/s 752 mmHg 43%
08:00 +26°C° 0 mm 1 m/s 752 mmHg 39%
09:00 +28°C° 0 mm 2 m/s 752 mmHg 36%
10:00 +29°C° 0 mm 2 m/s 752 mmHg 33%
11:00 +30°C° 0 mm 2 m/s 752 mmHg 33%
12:00 +31°C° 0 mm 2 m/s 752 mmHg 33%
13:00 +33°C° 0 mm 3 m/s 751 mmHg 32%
14:00 +33°C° 0 mm 3 m/s 751 mmHg 33%
15:00 +33°C° 0 mm 3 m/s 751 mmHg 33%
16:00 +33°C° 0 mm 3 m/s 751 mmHg 34%
17:00 +30°C° 0 mm 3 m/s 751 mmHg 41%
18:00 +28°C° 0 mm 4 m/s 751 mmHg 49%
19:00 +27°C° 0 mm 4 m/s 751 mmHg 56%
20:00 +25°C° 0.2 mm 4 m/s 751 mmHg 62%
21:00 +22°C° 0.2 mm 3 m/s 751 mmHg 67%
22:00 +20°C° 0.2 mm 3 m/s 752 mmHg 73%
23:00 +19°C° 0 mm 3 m/s 752 mmHg 74%

Amanhã, 19 Maio, Quarta-feira

Tempo Temperatura Precipitação Vento Pressão Humidade
00:00 +18°C° 0 mm 3 m/s 751 mmHg 76%
01:00 +17°C° 0 mm 3 m/s 751 mmHg 77%
02:00 +16°C° 0 mm 3 m/s 752 mmHg 79%
03:00 +16°C° 0 mm 3 m/s 752 mmHg 81%
04:00 +14°C° 0 mm 3 m/s 752 mmHg 83%
05:00 +16°C° 0 mm 3 m/s 752 mmHg 80%
06:00 +18°C° 0 mm 3 m/s 752 mmHg 76%
07:00 +19°C° 0 mm 4 m/s 753 mmHg 73%
08:00 +20°C° 0 mm 4 m/s 753 mmHg 67%
09:00 +22°C° 0 mm 4 m/s 753 mmHg 62%
10:00 +23°C° 0 mm 4 m/s 753 mmHg 57%
11:00 +25°C° 0 mm 5 m/s 753 mmHg 53%
12:00 +26°C° 0 mm 5 m/s 753 mmHg 49%
13:00 +27°C° 0 mm 5 m/s 753 mmHg 45%
14:00 +27°C° 0 mm 5 m/s 753 mmHg 43%
15:00 +27°C° 0 mm 5 m/s 753 mmHg 41%
16:00 +27°C° 0 mm 5 m/s 753 mmHg 39%
17:00 +26°C° 0 mm 4 m/s 753 mmHg 44%
18:00 +25°C° 0 mm 3 m/s 753 mmHg 49%
19:00 +24°C° 0 mm 3 m/s 753 mmHg 54%
20:00 +21°C° 0 mm 3 m/s 753 mmHg 56%
21:00 +20°C° 0 mm 3 m/s 754 mmHg 57%
22:00 +18°C° 0 mm 3 m/s 754 mmHg 59%
23:00 +17°C° 0 mm 3 m/s 754 mmHg 60%

Depois de amanhã, 20 Maio, Quinta-feira

Tempo Temperatura Precipitação Vento Pressão Humidade
00:00 +17°C° 0 mm 3 m/s 754 mmHg 60%
01:00 +16°C° 0 mm 3 m/s 755 mmHg 61%
02:00 +14°C° 0 mm 3 m/s 755 mmHg 62%
03:00 +14°C° 0 mm 2 m/s 755 mmHg 64%
04:00 +14°C° 0 mm 2 m/s 755 mmHg 65%
05:00 +14°C° 0 mm 3 m/s 755 mmHg 63%
06:00 +16°C° 0 mm 3 m/s 755 mmHg 60%
07:00 +17°C° 0 mm 3 m/s 755 mmHg 58%
08:00 +18°C° 0 mm 4 m/s 755 mmHg 53%
09:00 +20°C° 0 mm 5 m/s 755 mmHg 48%
10:00 +21°C° 0 mm 5 m/s 755 mmHg 43%
11:00 +22°C° 0 mm 5 m/s 755 mmHg 41%
12:00 +23°C° 0 mm 5 m/s 754 mmHg 38%
13:00 +25°C° 0 mm 5 m/s 754 mmHg 35%
14:00 +25°C° 0 mm 5 m/s 754 mmHg 35%
15:00 +26°C° 0 mm 5 m/s 754 mmHg 34%
16:00 +26°C° 0 mm 5 m/s 753 mmHg 33%
17:00 +25°C° 0 mm 5 m/s 753 mmHg 39%
18:00 +22°C° 0 mm 4 m/s 753 mmHg 45%
19:00 +21°C° 0 mm 3 m/s 752 mmHg 52%
20:00 +20°C° 0 mm 3 m/s 752 mmHg 53%
21:00 +18°C° 0 mm 3 m/s 752 mmHg 54%
22:00 +17°C° 0 mm 2 m/s 752 mmHg 56%
23:00 +17°C° 0 mm 3 m/s 752 mmHg 57%

21 Maio, Sexta-feira

Tempo Temperatura Precipitação Vento Pressão Humidade
00:00 +16°C° 0 mm 3 m/s 752 mmHg 57%
01:00 +16°C° 0 mm 3 m/s 752 mmHg 58%
02:00 +16°C° 0 mm 3 m/s 752 mmHg 57%
03:00 +14°C° 0 mm 3 m/s 752 mmHg 56%
04:00 +14°C° 0 mm 3 m/s 752 mmHg 56%
05:00 +16°C° 0 mm 3 m/s 752 mmHg 57%
06:00 +17°C° 0 mm 4 m/s 752 mmHg 58%
07:00 +18°C° 0 mm 4 m/s 752 mmHg 59%
08:00 +19°C° 0 mm 5 m/s 753 mmHg 58%
09:00 +20°C° 0 mm 5 m/s 753 mmHg 57%
10:00 +22°C° 0 mm 5 m/s 753 mmHg 56%
11:00 +22°C° 0.1 mm 5 m/s 753 mmHg 55%
12:00 +23°C° 0.1 mm 5 m/s 753 mmHg 53%
13:00 +25°C° 0.1 mm 5 m/s 753 mmHg 52%
14:00 +25°C° 0 mm 4 m/s 753 mmHg 52%
15:00 +25°C° 0 mm 4 m/s 753 mmHg 52%
16:00 +25°C° 0 mm 3 m/s 753 mmHg 53%
17:00 +22°C° 0 mm 3 m/s 753 mmHg 57%
18:00 +21°C° 0 mm 3 m/s 753 mmHg 61%
19:00 +20°C° 0 mm 2 m/s 753 mmHg 65%
20:00 +19°C° 0 mm 2 m/s 754 mmHg 66%
21:00 +19°C° 0 mm 2 m/s 754 mmHg 66%
22:00 +19°C° 0 mm 1 m/s 754 mmHg 67%
23:00 +18°C° 0 mm 1 m/s 754 mmHg 70%

22 Maio, Sábado

Tempo Temperatura Precipitação Vento Pressão Humidade
00:00 +18°C° 0 mm 1 m/s 754 mmHg 73%
01:00 +16°C° 0 mm 1 m/s 754 mmHg 76%
02:00 +16°C° 0 mm 1 m/s 755 mmHg 77%
03:00 +15°C° 0 mm 1 m/s 755 mmHg 79%
04:00 +15°C° 0 mm 1 m/s 755 mmHg 80%
05:00 +16°C° 0 mm 1 m/s 756 mmHg 76%
06:00 +19°C° 0 mm 1 m/s 756 mmHg 72%
07:00 +20°C° 0 mm 1 m/s 756 mmHg 67%
08:00 +22°C° 0 mm 1 m/s 756 mmHg 61%
09:00 +23°C° 0 mm 2 m/s 756 mmHg 56%
10:00 +24°C° 0 mm 2 m/s 756 mmHg 50%
11:00 +25°C° 0 mm 2 m/s 756 mmHg 48%
12:00 +26°C° 0 mm 2 m/s 756 mmHg 45%
13:00 +26°C° 0 mm 2 m/s 756 mmHg 43%
14:00 +27°C° 0 mm 2 m/s 756 mmHg 42%
15:00 +27°C° 0 mm 2 m/s 756 mmHg 41%
16:00 +27°C° 0 mm 1 m/s 756 mmHg 40%
17:00 +27°C° 0 mm 1 m/s 755 mmHg 44%
18:00 +26°C° 0 mm 1 m/s 755 mmHg 49%
19:00 +25°C° 0 mm 1 m/s 755 mmHg 53%
20:00 +24°C° 0 mm 1 m/s 755 mmHg 54%
21:00 +22°C° 0 mm 1 m/s 755 mmHg 56%
22:00 +21°C° 0 mm 1 m/s 755 mmHg 57%
23:00 +20°C° 0 mm 2 m/s 755 mmHg 59%

23 Maio, Domingo

Tempo Temperatura Precipitação Vento Pressão Humidade
00:00 +19°C° 0 mm 2 m/s 755 mmHg 61%
01:00 +19°C° 0 mm 2 m/s 755 mmHg 62%
02:00 +18°C° 0 mm 2 m/s 755 mmHg 62%
03:00 +18°C° 0 mm 2 m/s 755 mmHg 62%
04:00 +18°C° 0 mm 2 m/s 755 mmHg 62%
05:00 +19°C° 0 mm 2 m/s 755 mmHg 61%
06:00 +21°C° 0 mm 2 m/s 756 mmHg 59%
07:00 +23°C° 0 mm 2 m/s 756 mmHg 58%
08:00 +25°C° 0 mm 2 m/s 756 mmHg 53%
09:00 +26°C° 0 mm 2 m/s 756 mmHg 49%
10:00 +28°C° 0 mm 2 m/s 756 mmHg 44%
11:00 +29°C° 0 mm 2 m/s 756 mmHg 42%
12:00 +30°C° 0 mm 2 m/s 756 mmHg 39%
13:00 +31°C° 0 mm 1 m/s 755 mmHg 37%
14:00 +31°C° 0 mm 1 m/s 755 mmHg 37%
15:00 +31°C° 0 mm 1 m/s 755 mmHg 37%
16:00 +31°C° 0 mm 1 m/s 755 mmHg 37%
17:00 +30°C° 0 mm 1 m/s 755 mmHg 42%
18:00 +29°C° 0 mm 2 m/s 755 mmHg 47%
19:00 +28°C° 0 mm 2 m/s 755 mmHg 53%
20:00 +26°C° 0 mm 2 m/s 755 mmHg 56%
21:00 +25°C° 0 mm 2 m/s 755 mmHg 58%
22:00 +24°C° 0 mm 2 m/s 755 mmHg 61%
23:00 +23°C° 0 mm 2 m/s 755 mmHg 61%
Mostrar mais

Necessitamos do seu Consentimento

A Meteoprog e os seus Fornecedores de Serviços podem armazenar e aceder a dados pessoais como cookies, identificadores do dispositivo ou outras tecnologias semelhantes existentes no seu dispositivo e processar estes dados para personalizar conteúdos e anúncios, assim como funcionalidades nas redes sociais e análise de tráfego.

  • Armazenar e/ou aceder a informações no seu dispositivo

    Os cookies, identificadores do dispositivo ou outras informações podem ser armazenados ou acedidos no seu dispositivo, para os fins acima indicados.

  • Anúncios e conteúdos personalizados, medição de anúncios e conteúdos, dados sobre o público-alvo e desenvolvimento de produtos

    Os anúncios e os conteúdos podem ser personalizados com base num perfil. Podem ser adicionados dados adicionais para uma maior personalização dos anúncios e dos conteúdos. A eficácia dos anúncios e dos conteúdos pode ser medida. Podem ser obtidas informações sobre o público que visualizou os anúncios e os conteúdos. Estes dados podem ser usados para desenvolver ou melhorar sistemas, softwares ou a experiência do utilizador.

Ao clicar em "Eu concordo”, permitirá o uso de cookies, identificadores do dispositivo e web beacons mencionados ou outras tecnologias semelhantes. As configurações do navegador do seu dispositivo podem ser alteradas.

Para certos fins, podem ser invocados interesses legítimos ao invés de consentimento. Pode ler mais informação sobre este assunto na nossa Política de Privacidade e Cookies.